Погода в Эль-Курайате

Саудовская Аравия     31°19′51″N   37°20′42″E
темп.,
°C
ветер,
м/с
пор.,
м/с
влажн.,
%
обл.,
%
осадки,
мм/ч
давл.,
гПа
погр.,
м
21 апреля, ср
ср2100:00+25сз813325 0.0 1012270
03:00+23зсз913325 0.0 1012283
06:00+21сз510353 0.0 1014218
09:00+24сз89270 0.0 1014414
12:00+30сз661561 0.0 1013768
15:00+33сз651144 0.0 10111318
18:00+31ссз8712100 0.0 10111104
21:00+25сз71121100 0.0 1014392
22 апреля, чт
чт2200:00+23сз5923100 0.0 1015387
03:00+20сз6112499 0.0 1015254
06:00+19зсз8141983 0.0 1016279
09:00+23сз781355 0.0 1016399
12:00+29сз6681 0.0 1015861
15:00+31сз8875 0.0 10131335
18:00+29ссз99110 0.0 10121166
21:00+23сз8122248 0.0 1016370
23 апреля, пт
пт2300:00+20сз611260 0.0 1016237
03:00+18сз59275 0.0 1015158
06:00+17сз56265 0.0 101687
09:00+22ссз67195 0.0 1016448
12:00+29ссв24151 0.0 10131123
15:00+33ссв12130 0.0 10102328
18:00+33всв22140 0.0 10102673
21:00+28ссз45174 0.0 101163
24 апреля, сб
сб2400:00+24сз58230 0.0 1011127
03:00+23сз22255 0.0 101115
06:00+22в33260 0.0 101117
09:00+27юв6918100 0.0 1011598
12:00+33юв891297 0.0 10101690
15:00+36юв68105 0.1 10064018
18:00+34ююв991173 0.1 10052202
21:00+29юв12191998 0.3 1008496
25 апреля, вс
вс2500:00+25св22265 0.0 100826
03:00+25в442268 0.0 100835
06:00+23ююв45237 0.0 100858
09:00+29ю45170 0.0 1008564
12:00+34зюз46120 0.0 10072284
15:00+37зюз5770 0.0 10044216
18:00+35сз88100 0.0 10041944
21:00+29сз712190 0.0 1007266